FW7184 Weather Reports


Display with metric or nautical units.
time (UTC)temp
F
wind
direction
speed
MPH
gust
MPH
rain 1hr
in
rain 24hr
in
rain mn
in
humidity
%
barometer
mb
20260503033648 49 108 0.0 1.0 0.00 0.05 0.05 54 1011.5
20260503033146 49 96 0.0 1.0 0.00 0.05 0.05 55 1011.7
20260503032644 49 84 1.0 2.0 0.00 0.05 0.05 53 1011.7
20260503032143 49 116 0.0 1.0 0.00 0.05 0.05 55 1011.7
20260503031639 49 70 1.0 2.0 0.00 0.05 0.05 53 1011.6
20260503031137 49 82 2.0 2.0 0.00 0.05 0.05 55 1011.7
20260503030633 49 64 0.0 1.0 0.00 0.05 0.05 54 1011.7
20260503030130 49 132 1.0 2.0 0.00 0.05 0.05 53 1011.7
20260503025626 49 113 1.0 2.0 0.00 0.05 0.05 56 1011.7
20260503025119 49 120 0.0 0.0 0.00 0.05 0.05 60 1011.6
20260503024615 49 122 0.0 0.0 0.00 0.05 0.05 58 1011.5
20260503024112 49 111 0.0 0.0 0.00 0.05 0.05 57 1011.6
20260503023609 49 122 0.0 0.0 0.00 0.05 0.05 56 1011.6
20260503023106 50 117 0.0 0.0 0.00 0.05 0.05 57 1012.0
20260503022602 50 120 0.0 0.0 0.00 0.05 0.05 54 1011.7
20260503022056 50 105 1.0 1.0 0.00 0.05 0.05 54 1011.9
20260503021554 50 112 0.0 1.0 0.00 0.05 0.05 53 1011.8
20260503021051 50 114 0.0 0.0 0.00 0.05 0.05 52 1011.9
20260503020548 50 108 0.0 1.0 0.00 0.05 0.05 52 1011.8
20260503020044 50 121 0.0 0.0 0.00 0.05 0.05 53 1011.8
20260503015541 51 120 0.0 0.0 0.00 0.05 0.05 53 1011.8
20260503015039 51 122 0.0 0.0 0.00 0.05 0.05 53 1011.9
20260503014535 51 115 0.0 0.0 0.00 0.05 0.05 53 1012.0
20260503014033 51 115 0.0 0.0 0.00 0.05 0.05 52 1011.8
20260503013530 51 123 0.0 0.0 0.00 0.05 0.05 52 1011.8
20260503013027 51 121 0.0 0.0 0.00 0.05 0.05 51 1011.7
20260503012525 51 103 1.0 1.0 0.00 0.05 0.05 51 1011.8
20260503012021 52 114 0.0 0.0 0.00 0.05 0.05 49 1011.7
20260503011517 52 122 0.0 0.0 0.00 0.05 0.05 49 1011.7
20260503011014 52 116 0.0 0.0 0.00 0.05 0.05 48 1011.5
20260503010511 52 116 1.0 1.0 0.00 0.05 0.05 46 1011.5
20260503010009 52 125 0.0 0.0 0.00 0.05 0.05 46 1011.6
20260503005506 53 96 1.0 1.0 0.00 0.05 0.05 44 1011.5
20260503005003 53 105 0.0 0.0 0.00 0.05 0.05 44 1011.2
20260503004459 53 116 0.0 1.0 0.00 0.05 0.05 43 1011.3
20260503003957 53 121 0.0 0.0 0.00 0.05 0.05 44 1011.2
20260503003454 53 109 1.0 1.0 0.00 0.05 0.05 44 1011.2
20260503002950 53 117 0.0 1.0 0.00 0.05 0.05 44 1011.2
20260503002448 53 106 0.0 0.0 0.00 0.05 0.05 44 1011.0
20260503001943 53 78 0.0 1.0 0.00 0.05 0.05 43 1011.2
20260503001440 53 104 2.0 3.0 0.00 0.05 0.05 43 1011.2
20260503000938 53 77 1.0 2.0 0.00 0.05 0.05 44 1010.9
20260503000437 54 27 3.0 3.0 0.00 0.05 0.05 43 1011.2
20260502235932 54 95 0.0 1.0 0.00 0.05 0.05 44 1011.0
20260502235429 54 62 2.0 2.0 0.00 0.05 0.05 43 1011.0
20260502234926 54 34 2.0 2.0 0.00 0.05 0.05 42 1010.9
20260502234422 54 121 1.0 2.0 0.00 0.05 0.05 42 1010.9
20260502233920 55 115 1.0 2.0 0.00 0.05 0.05 41 1010.8
20260502233415 55 21 1.0 1.0 0.00 0.05 0.05 41 1010.8
20260502232913 55 146 0.0 1.0 0.00 0.05 0.05 41 1010.6
20260502232409 55 162 0.0 1.0 0.00 0.05 0.05 40 1010.6
20260502231906 56 121 0.0 0.0 0.00 0.05 0.05 40 1010.6
20260502231403 56 121 0.0 0.0 0.00 0.05 0.05 41 1010.5
20260502230901 56 118 0.0 1.0 0.00 0.05 0.05 42 1010.4
20260502230359 56 121 0.0 1.0 0.00 0.05 0.05 41 1010.6
20260502225856 56 100 0.0 1.0 0.00 0.05 0.05 40 1010.5
20260502225352 56 50 3.0 3.0 0.00 0.05 0.05 40 1010.4
20260502224849 56 94 2.0 2.0 0.00 0.05 0.05 41 1010.3
20260502224345 56 124 0.0 0.0 0.00 0.05 0.05 40 1010.3
20260502223843 56 82 1.0 1.0 0.00 0.05 0.05 42 1010.5
20260502223341 56 116 1.0 1.0 0.00 0.05 0.05 42 1010.3
20260502222838 56 106 0.0 0.0 0.00 0.05 0.05 42 1010.4
20260502222336 57 121 0.0 0.0 0.00 0.05 0.05 40 1010.5
20260502221831 57 86 1.0 2.0 0.00 0.05 0.05 40 1010.4
20260502221328 58 115 1.0 2.0 0.00 0.05 0.05 40 1010.2
20260502220825 57 66 2.0 2.0 0.00 0.05 0.05 40 1010.4
20260502220320 57 110 2.0 2.0 0.00 0.05 0.05 40 1010.1
20260502215817 57 114 0.0 0.0 0.00 0.05 0.05 45 1010.1
20260502215315 57 125 0.0 0.0 0.00 0.05 0.05 43 1010.4
20260502214812 57 119 0.0 0.0 0.00 0.05 0.05 48 1010.3
20260502214309 57 120 0.0 0.0 0.00 0.05 0.05 45 1010.2
20260502213806 57 120 0.0 0.0 0.00 0.05 0.05 48 1010.1
20260502213303 57 121 0.0 0.0 0.00 0.05 0.05 45 1010.2
20260502212802 57 110 0.0 0.0 0.00 0.05 0.05 43 1010.1
20260502212259 57 92 0.0 0.0 0.00 0.05 0.05 44 1010.0
20260502211754 57 77 1.0 2.0 0.00 0.05 0.05 42 1010.1
20260502211252 58 37 1.0 1.0 0.00 0.05 0.05 44 1010.1
20260502210749 58 115 0.0 0.0 0.00 0.05 0.05 43 1010.0
20260502210246 58 122 0.0 0.0 0.00 0.05 0.05 42 1009.9
20260502205744 59 73 2.0 2.0 0.00 0.05 0.05 40 1009.9
20260502205240 59 152 0.0 1.0 0.00 0.05 0.05 43 1009.9
20260502204737 58 91 0.0 0.0 0.00 0.05 0.05 47 1009.7
20260502204234 58 156 1.0 2.0 0.00 0.05 0.05 45 1009.8
20260502203732 59 105 0.0 0.0 0.00 0.05 0.05 45 1010.0
20260502203230 58 93 0.0 1.0 0.00 0.05 0.05 46 1010.1
20260502202723 58 135 0.0 1.0 0.00 0.05 0.05 45 1010.1
20260502202222 58 120 0.0 0.0 0.00 0.05 0.05 45 1010.4
20260502201719 58 101 1.0 1.0 0.00 0.05 0.05 44 1010.3
20260502201215 58 77 1.0 2.0 0.00 0.05 0.05 42 1010.3
20260502200706 58 132 0.0 0.0 0.00 0.05 0.05 43 1010.3
20260502200202 58 86 1.0 2.0 0.00 0.05 0.05 43 1010.5
20260502195701 58 116 0.0 0.0 0.00 0.05 0.05 46 1010.5
20260502195157 58 101 2.0 2.0 0.00 0.05 0.05 44 1010.5
20260502194653 58 42 1.0 2.0 0.00 0.05 0.05 45 1010.4
20260502194150 59 47 1.0 1.0 0.00 0.05 0.05 43 1010.3
20260502193647 59 68 1.0 1.0 0.00 0.05 0.05 44 1010.6
20260502193144 59 126 0.0 1.0 0.00 0.05 0.05 46 1010.7
20260502192639 58 114 0.0 0.0 0.00 0.05 0.05 45 1010.9
20260502192137 59 128 0.0 1.0 0.00 0.05 0.05 47 1010.9
20260502191634 58 173 2.0 3.0 0.00 0.05 0.05 48 1011.1
20260502191131 58 12 3.0 5.0 0.00 0.05 0.05 49 1011.0
20260502190628 59 151 1.0 2.0 0.00 0.05 0.05 48 1011.0
20260502190127 59 126 0.0 1.0 0.00 0.05 0.05 51 1011.0
20260502185620 58 189 0.0 1.0 0.00 0.05 0.05 49 1011.5
20260502185117 58 132 0.0 0.0 0.00 0.05 0.05 50 1011.1
20260502184614 59 119 0.0 0.0 0.00 0.05 0.05 49 1011.2
20260502184109 58 121 0.0 0.0 0.00 0.05 0.05 52 1011.3
20260502183606 58 89 3.0 3.0 0.00 0.05 0.05 48 1011.5
20260502183102 57 99 0.0 1.0 0.00 0.05 0.05 54 1011.5
20260502182557 57 104 1.0 1.0 0.00 0.05 0.05 54 1011.5
20260502182053 58 80 0.0 1.0 0.00 0.05 0.05 55 1011.5
20260502181551 57 60 2.0 2.0 0.00 0.05 0.05 57 1011.6
20260502181049 58 73 1.0 1.0 0.00 0.05 0.05 58 1011.5
20260502180546 57 103 0.0 1.0 0.00 0.05 0.05 59 1011.7
20260502170459 57 135 0.0 1.0 0.00 0.05 0.05 62 1011.9
20260502163943 56 147 0.0 1.0 0.00 0.05 0.05 64 1012.0
20260502163439 56 54 2.0 2.0 0.00 0.05 0.05 66 1012.0
20260502162937 56 121 1.0 1.0 0.00 0.05 0.05 66 1012.2
20260502162434 57 128 0.0 0.0 0.00 0.05 0.05 65 1012.2
20260502161931 57 78 1.0 1.0 0.00 0.05 0.05 66 1012.3
20260502161427 55 72 1.0 2.0 0.00 0.05 0.05 67 1012.2
20260502160925 55 75 2.0 3.0 0.00 0.05 0.05 68 1012.3
20260502160423 55 115 1.0 2.0 0.00 0.05 0.05 69 1012.0
20260502151901 54 25 1.0 2.0 0.00 0.05 0.05 75 1012.5
20260502151357 53 129 0.0 0.0 0.00 0.05 0.05 75 1012.5
20260502150855 53 131 0.0 1.0 0.00 0.05 0.05 77 1012.5
20260502150351 53 81 0.0 1.0 0.00 0.05 0.05 76 1012.3
20260502130739 52 69 0.0 1.0 0.00 0.05 0.05 86 1012.7
20260502130237 51 120 0.0 0.0 0.00 0.05 0.05 87 1012.4
20260502123723 49 106 0.0 0.0 0.00 0.05 0.05 93 1012.5
20260502123219 49 131 0.0 0.0 0.00 0.05 0.05 95 1012.6
20260502122716 49 136 0.0 0.0 0.00 0.05 0.05 96 1012.4
20260502122212 49 115 0.0 1.0 0.00 0.05 0.05 97 1012.4
20260502121711 49 123 0.0 0.0 0.00 0.05 0.05 98 1012.3
20260502121209 49 104 1.0 1.0 0.00 0.05 0.05 98 1012.4
20260502120704 48 31 0.0 0.0 0.00 0.05 0.05 99 1012.4
20260502120201 48 113 0.0 0.0 0.00 0.05 0.05 99 1012.3
20260502115659 48 119 0.0 0.0 0.00 0.05 0.05 99 1012.3
20260502115155 48 128 0.0 0.0 0.00 0.05 0.05 99 1012.8
20260502114651 48 120 0.0 0.0 0.00 0.05 0.05 99 1012.6
20260502114149 48 128 0.0 0.0 0.00 0.05 0.05 99 1012.4
20260502113646 48 108 0.0 0.0 0.00 0.05 0.05 99 1012.6
20260502113144 48 120 0.0 0.0 0.00 0.05 0.05 99 1012.3
20260502112642 48 125 0.0 0.0 0.00 0.05 0.05 99 1012.4
20260502112139 48 120 0.0 0.0 0.00 0.05 0.05 99 1012.4
20260502111636 48 106 0.0 0.0 0.00 0.05 0.05 99 1012.1
20260502111134 48 119 0.0 0.0 0.00 0.05 0.05 99 1012.2
20260502110632 48 117 0.0 0.0 0.00 0.05 0.05 99 1012.1
20260502110129 48 123 0.0 0.0 0.00 0.05 0.05 99 1012.0
20260502105626 48 119 0.0 0.0 0.00 0.05 0.05 99 1012.2
20260502105117 47 121 0.0 0.0 0.00 0.05 0.05 99 1011.8
20260502104614 47 125 0.0 0.0 0.00 0.05 0.05 99 1012.0
20260502104112 47 123 0.0 0.0 0.00 0.05 0.05 99 1011.8
20260502103610 47 121 0.0 0.0 0.00 0.05 0.05 99 1012.0
20260502103108 47 131 0.0 0.0 0.00 0.05 0.05 99 1012.0
20260502102604 47 123 0.0 0.0 0.00 0.05 0.05 99 1012.0
20260502102101 47 124 0.0 0.0 0.00 0.05 0.05 99 1012.0
20260502101559 47 127 0.0 0.0 0.00 0.05 0.05 99 1012.0
20260502101057 47 131 0.0 0.0 0.00 0.05 0.05 99 1011.9
20260502100554 47 128 0.0 0.0 0.00 0.05 0.05 99 1011.5
20260502091530 48 127 0.0 0.0 0.00 0.01 0.01 97 1012.0
20260502091027 48 127 0.0 0.0 0.00 0.01 0.01 97 1011.9
20260502090524 48 134 0.0 0.0 0.00 0.01 0.01 97 1011.8
20260502071418 48 126 0.0 0.0 0.00 0.00 0.00 96 1011.9
20260502070916 48 123 0.0 0.0 0.00 0.00 0.00 96 1011.9
20260502070414 48 121 0.0 0.0 0.00 0.00 0.00 96 1011.9
20260502065912 48 123 0.0 0.0 0.00 0.00 0.00 96 1011.7
20260502065410 48 127 0.0 0.0 0.00 0.00 0.00 96 1011.5
20260502064908 48 128 0.0 0.0 0.00 0.00 0.00 96 1011.6
20260502064406 48 118 0.0 0.0 0.00 0.00 0.00 96 1011.8
20260502063903 48 123 0.0 0.0 0.00 0.00 0.00 95 1012.0
20260502063400 48 113 0.0 0.0 0.00 0.00 0.00 95 1011.9
20260502062857 48 122 0.0 0.0 0.00 0.00 0.00 95 1011.9
20260502062355 48 123 0.0 0.0 0.00 0.00 0.00 95 1011.8
20260502061854 49 121 0.0 0.0 0.00 0.00 0.00 94 1011.8
20260502061351 49 123 0.0 0.0 0.00 0.00 0.00 94 1011.8
20260502060847 49 118 0.0 0.0 0.00 0.00 0.00 94 1011.8
20260502060342 49 129 0.0 0.0 0.00 0.00 0.00 94 1012.1
20260502055839 49 131 0.0 0.0 0.00 0.00 0.00 93 1011.9
20260502055338 49 127 0.0 0.0 0.00 0.00 0.00 93 1012.0
20260502054837 49 117 0.0 0.0 0.00 0.00 0.00 92 1011.9
20260502054334 49 122 0.0 0.0 0.00 0.00 0.00 92 1012.4
20260502053831 49 120 0.0 0.0 0.00 0.00 0.00 92 1012.1
20260502053328 49 127 0.0 0.0 0.00 0.00 0.00 91 1012.2
20260502052826 49 122 0.0 0.0 0.00 0.00 0.00 91 1011.9
20260502052324 49 129 0.0 0.0 0.00 0.00 0.00 90 1011.9
20260502051821 49 123 0.0 0.0 0.00 0.00 0.00 90 1012.0
20260502051320 49 119 0.0 0.0 0.00 0.00 0.00 89 1011.8
20260502050816 50 125 0.0 0.0 0.00 0.00 0.00 89 1012.1
20260502050312 50 126 0.0 0.0 0.00 0.00 0.00 88 1012.1
20260502045810 50 120 0.0 0.0 0.00 0.00 0.00 88 1012.0
20260502045306 50 125 0.0 0.0 0.00 0.00 0.00 87 1012.0
20260502044803 50 130 0.0 0.0 0.00 0.00 0.00 87 1012.0
20260502044259 50 123 0.0 0.0 0.00 0.00 0.00 87 1012.2
20260502043757 50 126 0.0 0.0 0.00 0.00 0.00 87 1012.1
20260502043254 50 134 0.0 0.0 0.00 0.00 0.00 88 1012.1
20260502042753 50 122 0.0 0.0 0.00 0.00 0.00 87 1012.0
20260502042251 50 122 0.0 0.0 0.00 0.00 0.00 87 1012.0
20260502041748 50 127 0.0 0.0 0.00 0.00 0.00 87 1012.0
20260502041245 50 127 0.0 0.0 0.00 0.00 0.00 87 1011.9
20260502040743 49 121 0.0 0.0 0.00 0.00 0.00 87 1011.9
20260502040239 49 123 0.0 0.0 0.00 0.00 0.00 87 1011.9
20260502035735 49 125 0.0 0.0 0.00 0.00 0.00 87 1012.1
20260502035232 49 126 0.0 0.0 0.00 0.00 0.00 87 1012.1
20260502034729 49 117 0.0 0.0 0.00 0.00 0.00 87 1011.9
20260502034228 49 125 0.0 0.0 0.00 0.00 0.00 87 1011.9